Presure
137 180 174 202 165 167 154 141 177 174 184 129 170 142 186 185 169 110 153 162 131 166 159 144 170 147 196 149 182 181 147 178 186 181 192 196 208 198 204 198 188 181 154 197 218
122 132 140 180 148 117 119 174 127 143 169 173 174 160 188 134 167 140 154 191 172 168 184 154 178 163 165 192 141 189 183 197 181 177 175 239 212 208 214 202 208 163 215 216 208
118 124 114 133 126 135 136 125 193 133 134 177 164 173 116 178 142 169 173 126 175 129 180 154 125 143 194 176 171 156 209 175 169 203 161 161 258 181 203 199 200 204 163 193 212
119 110 150 138 133 123 145 132 119 131 190 167 155 165 162 186 146 135 111 144 158 146 123 184 132 163 141 150 195 191 150 177 222 187 208 198 277 184 156 160 190 185 201 199 204
128 126 146 175 139 150 139 174 121 135 153 170 124 175 128 139 174 167 204 190 146 167 174 203 161 216 189 166 205 174 192 219 161 165 223 293 275 297 288 205 185 176 173 198 174
175 122 158 145 132 160 143 171 158 163 151 162 120 148 141 190 109 145 164 191 177 168 191 161 183 164 149 160 233 233 159 232 254 224 182 279 215 214 234 198 217 177 207 183 183
146 133 149 122 124 122 180 138 171 173 183 151 170 118 185 185 150 166 141 140 160 161 125 194 139 141 154 216 290 272 253 253 308 305 146 229 193 277 286 162 167 214 190 209 213
151 173 167 128 138 183 168 134 127 127 135 158 153 124 185 171 187 141 183 181 142 204 207 211 204 177 150 213 276 256 272 307 179 290 257 282 283 262 269 229 252 201 215 222 218
153 149 165 180 172 178 161 120 134 156 169 159 172 174 181 175 179 191 201 177 197 217 193 195 185 214 244 289 268 257 245 293 285 280 276 276 266 259 267 250 252 229 199 207 223
129 130 126 129 135 143 118 111 158 189 170 171 166 171 180 190 163 166 181 180 179 195 217 194 229 214 244 276 258 312 299 288 296 283 276 265 258 250 248 247 229 214 188 223 184
128 169 124 190 207 192 164 198 117 165 201 163 193 195 197 191 190 172 185 193 185 218 221 202 219 223 333 259 313 304 281 283 283 277 267 260 251 244 250 256 243 153 194 170 189
220 182 171 178 206 209 200 194 200 190 192 167 175 186 176 196 192 187 197 204 222 218 169 236 219 216 270 311 295 280 280 266 261 259 255 254 244 252 157 242 163 219 181 186 218
205 165 172 170 186 182 185 198 201 175 189 208 200 193 204 205 192 200 217 204 222 293 314 229 221 286 262 300 283 272 261 259 252 238 240 245 245 236 235 227 161 183 209 227 176
166 129 184 200 158 188 193 184 213 187 175 203 186 167 184 210 209 211 222 226 311 311 244 180 226 300 302 281 273 267 260 254 244 247 239 237 211 231 221 195 237 178 235 205 240
186 185 202 116 210 150 160 193 197 162 165 177 214 211 205 212 219 229 266 284 311 257 241 275 319 303 289 266 255 261 253 249 243 239 231 233 230 229 233 206 227 233 233 241 177
186 166 184 205 177 205 206 171 192 201 197 203 204 225 209 234 237 244 324 334 292 251 285 247 315 294 277 263 249 247 244 242 240 235 235 232 238 179 231 236 236 239 240 202 203
181 210 223 218 214 216 197 225 219 227 201 224 228 301 217 276 311 305 308 320 305 296 279 309 305 294 273 259 240 241 241 237 239 237 234 188 235 239 233 232 232 242 193 219 280
235 219 221 225 219 246 232 215 212 221 225 238 249 309 305 302 278 285 307 307 298 295 278 300 296 286 273 260 247 246 246 241 240 235 238 240 237 233 233 238 241 253 231 278 269
240 258 227 226 269 261 318 390 352 270 369 342 322 335 239 297 298 305 279 312 291 285 316 292 291 282 271 253 196 239 236 238 233 233 232 234 234 238 241 243 249 243 272 266 295
265 284 278 270 312 254 321 346 356 305 354 358 336 350 227 305 310 286 322 311 279 302 301 286 285 275 266 253 248 243 240 240 230 229 228 230 235 237 244 246 256 270 257 279 276
270 301 332 266 279 308 242 340 349 292 346 352 346 338 336 322 317 308 316 310 312 303 288 284 281 270 267 250 248 240 236 235 237 232 231 235 233 243 246 249 261 256 266 284 368
287 233 286 279 298 361 348 254 353 293 234 273 326 321 317 318 373 309 291 336 314 290 280 281 278 269 265 252 246 244 238 237 235 231 214 232 246 247 249 253 256 258 282 272 349
261 282 258 303 335 311 262 347 330 302 320 321 330 319 266 312 304 292 323 306 297 285 277 234 269 266 265 258 243 243 243 239 226 219 245 246 245 247 248 255 249 277 272 364 327
302 267 279 262 293 254 251 257 335 335 335 328 320 320 279 316 307 247 307 287 261 273 272 268 269 264 258 262 256 252 249 247 249 248 243 227 247 245 252 248 261 273 272 353 323
304 329 339 336 332 331 330 324 236 329 323 316 317 313 302 290 246 304 291 279 282 264 226 262 260 264 264 258 255 253 252 245 242 242 246 247 244 252 245 252 272 262 300 351 333
328 340 338 323 326 324 327 317 317 316 314 311 305 299 297 251 293 299 281 276 277 231 267 265 262 268 261 258 254 212 246 246 248 247 244 245 254 241 247 265 263 264 325 347 315
333 330 329 320 314 324 320 317 312 311 306 304 299 310 338 298 292 282 282 272 265 264 262 266 259 263 262 258 255 252 249 222 247 246 247 253 241 242 258 260 260 263 324 320 316
Wind_Speed
27 38 46 47 48 44 45 39 48 40 50 38 57 39 52 44 50 35 51 56 41 62 60 50 69 47 70 48 76 77 47 74 79 70 73 70 71 68 70 66 67 67 56 69 70
24 34 32 51 37 34 33 51 31 47 53 56 46 54 44 42 48 42 52 52 61 49 68 57 78 62 67 68 50 63 74 81 74 61 54 62 78 74 77 71 72 68 72 70 67
34 30 35 43 32 42 45 33 47 44 41 48 44 52 43 53 52 58 56 44 56 46 61 63 46 47 71 73 70 46 72 62 41 82 37 40 68 62 76 70 69 71 53 62 71
40 42 54 53 49 32 56 48 38 37 52 51 56 51 60 59 57 45 42 55 59 46 46 68 46 78 40 36 77 74 38 61 53 82 88 86 62 60 58 62 65 58 68 64 70
43 46 47 51 48 43 61 51 41 57 45 55 38 55 43 47 64 60 71 69 50 69 74 74 66 79 73 59 77 70 82 77 58 51 66 65 56 66 69 77 65 62 58 63 61
54 51 60 55 50 59 50 59 53 59 63 60 42 59 61 64 34 64 58 68 67 59 72 68 71 80 49 42 83 73 53 53 63 56 77 54 53 56 70 62 79 56 75 61 59
62 51 57 44 45 42 57 63 60 60 61 67 64 43 70 72 59 67 52 46 58 69 35 75 37 39 52 80 59 58 56 58 44 44 42 54 66 49 51 58 56 76 59 79 79
66 66 66 49 55 64 58 55 47 51 63 67 69 47 70 64 74 64 74 70 68 80 80 77 77 70 48 49 59 58 52 40 46 42 45 42 41 53 54 66 69 68 80 81 80
72 66 68 68 67 68 71 47 60 72 71 72 76 70 72 74 73 73 70 76 75 74 70 72 61 78 77 61 57 58 43 38 38 41 41 38 42 47 47 63 64 77 61 72 80
55 55 50 53 55 55 48 47 62 69 80 81 75 76 79 74 64 65 70 70 68 78 79 70 79 75 73 58 55 36 37 35 37 39 36 37 40 46 54 61 70 70 55 77 53
54 78 57 77 83 73 76 81 50 70 83 76 74 73 74 79 75 63 80 78 77 86 84 73 72 73 37 55 31 28 27 28 28 31 32 34 42 53 53 54 66 42 50 46 56
91 78 77 77 84 84 82 81 88 73 68 83 83 82 83 80 81 76 80 82 89 84 52 76 69 65 54 30 29 26 24 24 25 28 32 36 46 40 39 50 45 53 48 52 77
85 77 83 83 80 78 79 81 80 79 80 75 79 81 85 85 81 81 89 80 83 77 58 68 66 46 50 27 26 25 27 26 24 33 36 36 37 46 52 60 28 45 62 74 47
82 61 82 85 88 82 82 82 86 88 81 72 88 61 80 90 83 83 86 84 65 55 65 56 63 33 24 26 25 25 24 24 30 31 35 37 43 50 49 40 60 39 70 54 77
85 85 91 47 96 73 85 82 81 84 75 87 92 93 88 85 84 85 90 75 51 58 60 49 24 25 23 28 29 24 27 28 30 34 43 44 47 51 53 48 60 65 67 72 43
91 87 89 101 97 95 98 93 92 81 80 90 87 98 87 96 90 83 60 50 47 54 45 46 21 24 25 28 28 27 29 31 35 40 42 43 45 37 54 57 61 63 67 51 50
96 101 115 110 103 107 101 108 94 98 82 94 98 82 84 77 58 58 58 50 41 41 42 25 20 21 25 28 31 31 31 34 37 40 41 30 46 48 51 55 57 65 44 52 74
121 112 114 119 107 113 110 88 81 93 96 98 80 67 59 57 62 57 54 44 38 35 36 22 21 22 25 30 33 31 32 33 36 38 39 43 44 46 49 52 57 62 53 67 61
116 117 102 102 104 102 78 45 55 93 48 54 58 45 64 55 57 54 43 42 36 32 25 20 20 23 26 29 30 33 32 32 34 36 35 38 41 46 47 49 54 53 61 58 65
101 88 91 95 76 93 65 52 49 59 44 43 45 44 61 54 55 43 46 38 35 30 22 19 19 22 26 30 32 34 33 35 34 32 33 37 42 42 46 47 51 57 51 62 55
90 85 73 84 73 65 76 50 45 55 42 38 35 35 43 50 45 40 37 37 32 26 21 19 19 22 26 30 32 33 34 34 35 32 35 38 37 43 44 46 51 48 55 56 9
81 84 71 71 67 44 46 63 40 50 54 47 37 34 34 35 39 31 32 29 27 23 20 20 19 21 26 30 31 32 33 33 31 31 31 35 41 41 40 44 45 47 50 49 3
74 71 74 67 54 51 59 39 39 42 36 32 29 30 37 27 27 28 26 26 22 20 19 23 19 21 24 28 30 31 33 33 24 25 38 37 34 35 38 40 41 48 45 14 1
70 69 67 67 58 62 61 55 34 30 27 25 26 26 31 23 24 32 26 23 22 21 21 21 19 22 24 25 27 30 32 33 32 31 30 26 30 31 34 36 42 42 42 4 8
66 61 54 46 42 38 33 34 45 25 25 25 25 23 23 24 32 29 25 24 23 24 23 22 19 22 25 24 25 26 26 26 26 25 26 25 27 27 30 37 38 37 45 4 23
56 53 43 40 38 35 31 33 29 24 25 24 24 23 23 31 25 28 25 24 27 23 22 21 20 22 24 24 25 17 24 24 23 23 21 22 22 24 29 34 33 35 32 11 16
46 45 37 35 39 33 30 28 27 25 25 24 25 24 26 29 28 29 29 29 27 24 22 20 21 22 23 23 23 22 22 22 21 19 20 18 19 22 29 30 29 31 28 12 15
Wind_Direction
297 282 284 286 284 287 297 272 282 289 284 275 280 277 280 288 285 278 282 284 280 274 281 282 281 274 275 285 274 274 277 278 277 283 276 275 269 273 272 267 262 263 261 268 266
261 295 272 281 290 281 267 276 287 295 291 275 289 284 288 274 282 283 278 285 275 285 270 278 274 278 282 288 272 289 273 273 280 286 277 272 270 269 267 268 269 265 268 265 269
258 278 267 305 280 283 303 285 292 303 289 280 285 274 286 289 285 277 279 277 277 274 271 289 279 292 282 274 288 270 282 268 271 265 274 280 262 287 273 270 269 271 263 266 262
270 278 281 287 300 279 291 300 279 287 292 282 294 291 277 292 286 288 288 292 283 282 278 291 270 291 270 280 284 274 273 277 270 277 273 276 263 286 261 262 269 267 270 272 269
297 290 282 289 281 286 292 290 286 298 290 286 282 295 280 291 287 289 296 290 284 274 286 293 289 293 285 275 287 283 275 269 273 298 267 265 264 254 248 266 263 268 262 270 260
284 286 286 281 280 286 290 284 288 289 286 289 277 296 297 293 283 290 290 295 291 294 292 295 289 287 295 280 295 278 296 278 275 271 287 269 274 268 258 255 257 263 267 269 270
282 283 288 278 287 285 287 288 287 286 290 281 287 287 294 294 286 279 292 284 292 280 279 292 282 290 298 295 290 289 287 282 274 268 267 272 276 255 248 264 264 260 269 268 268
285 285 285 282 287 284 283 291 283 290 292 285 287 288 288 288 289 290 290 291 291 290 290 294 292 283 294 288 292 290 284 270 262 263 263 264 261 252 252 258 249 266 263 261 266
283 281 287 283 283 285 282 284 287 288 284 289 284 284 287 290 288 288 289 286 292 297 290 292 294 298 308 297 294 292 281 267 263 262 259 259 255 253 253 247 248 252 272 272 267
275 285 280 282 280 280 274 279 283 282 281 282 285 291 286 285 293 293 293 293 293 293 299 292 306 300 309 297 295 279 272 272 269 264 257 253 250 248 248 248 250 261 267 264 275
270 277 280 286 284 283 285 284 278 285 288 292 282 288 287 284 287 290 289 288 290 298 296 294 300 301 293 297 282 278 271 269 266 261 256 252 249 248 252 255 253 261 271 272 278
277 279 280 279 287 284 282 281 284 280 283 288 289 282 288 294 287 293 289 294 300 294 291 299 297 301 298 280 278 271 266 261 255 246 247 250 255 257 259 258 258 261 270 279 278
283 278 278 279 281 277 281 282 283 286 288 291 285 281 293 292 290 288 296 295 296 293 292 295 295 295 296 274 276 265 261 259 255 258 255 256 257 255 255 259 265 269 277 274 279
271 281 281 284 278 277 282 279 288 282 291 290 284 290 289 291 291 293 298 297 291 292 294 295 295 285 275 271 267 263 260 254 251 249 255 255 256 258 261 265 267 276 272 277 280
275 275 285 281 289 286 284 278 284 291 292 280 292 288 286 287 295 299 299 296 293 290 292 293 276 270 264 271 273 264 252 249 252 250 256 254 257 262 265 270 273 274 281 284 281
280 283 276 284 278 284 285 277 284 292 288 291 287 291 287 293 295 296 289 286 292 286 288 292 270 262 254 259 267 260 256 253 250 253 255 260 262 257 270 274 280 285 288 286 290
279 281 282 283 282 282 283 282 286 289 282 292 292 284 286 288 286 288 290 295 292 283 285 279 267 249 243 249 261 261 258 260 261 263 268 261 272 271 279 284 288 290 284 294 305
276 283 280 280 281 280 281 280 282 285 288 289 286 276 276 279 287 287 290 296 282 280 280 271 263 241 235 243 253 257 255 260 265 270 272 274 280 284 285 289 294 296 297 306 312
276 277 279 279 281 283 289 288 284 283 281 272 268 257 283 274 279 282 289 291 279 280 267 263 253 242 233 242 249 256 259 261 264 271 277 283 284 287 293 296 300 299 308 312 319
280 283 282 283 290 283 287 287 285 283 280 274 268 250 281 266 272 279 280 282 277 279 262 258 247 237 231 236 242 249 256 258 267 277 283 284 287 293 298 301 306 310 313 319 326
281 288 289 281 284 287 283 285 284 279 278 275 269 260 251 258 270 279 280 279 274 261 258 256 243 237 233 235 237 248 257 262 267 277 281 286 293 297 302 307 310 312 320 323 3
284 279 284 284 286 286 284 281 282 275 278 271 266 263 261 261 253 266 270 258 254 252 255 250 240 234 235 233 241 245 254 261 271 277 278 289 293 300 307 310 311 318 325 328 12
277 282 279 283 285 280 278 281 279 274 271 267 263 262 264 258 253 258 239 243 239 244 247 253 236 234 234 234 243 248 253 261 270 279 281 287 298 305 312 311 314 321 329 343 174
276 277 277 276 277 275 275 275 273 271 264 258 257 254 253 237 236 259 228 235 242 238 239 240 238 237 237 236 238 244 251 258 264 272 281 288 302 309 309 311 317 328 333 68 154
274 278 279 275 273 270 269 266 267 264 256 251 245 241 239 239 252 218 222 229 221 237 245 241 243 237 238 235 236 241 249 257 265 277 285 295 304 307 309 314 321 335 347 101 144
272 274 272 266 264 263 259 259 258 253 245 238 236 235 227 242 215 209 217 222 221 242 239 239 238 236 231 234 238 254 252 260 271 276 286 297 301 307 313 320 330 339 353 142 143
267 266 263 258 257 257 251 251 248 240 233 229 229 220 214 202 205 210 208 217 227 230 235 233 230 233 229 233 239 245 253 253 268 279 290 293 300 311 318 321 336 343 357 155 158